TimeEST,TemperatureF,Dew PointF,Humidity,Sea Level PressureIn,VisibilityMPH,Wind Direction,Wind SpeedMPH,Gust SpeedMPH,PrecipitationIn,Events,Conditions,WindDirDegrees,DateUTC
12:43 AM,50.0,50.0,100,29.91,3.0,South,8.1,20.7,N/A,,Overcast,180,2012-12-05 05:43:00
12:53 AM,50.0,50.0,100,29.91,3.0,South,8.1,20.7,N/A,,Overcast,180,2012-12-05 05:53:00
1:24 AM,50.0,50.0,100,29.89,2.5,South,12.7,20.7,N/A,,Overcast,170,2012-12-05 06:24:00
1:53 AM,50.0,50.0,100,29.88,1.5,South,11.5,19.6,N/A,,Overcast,180,2012-12-05 06:53:00
2:23 AM,50.0,50.0,100,29.86,2.5,South,11.5,20.7,N/A,,Overcast,170,2012-12-05 07:23:00
2:53 AM,51.1,50.0,96,29.84,2.5,South,9.2,-,N/A,,Overcast,180,2012-12-05 07:53:00
3:12 AM,50.0,50.0,100,29.82,1.5,South,9.2,16.1,N/A,,Overcast,180,2012-12-05 08:12:00
3:33 AM,51.8,50.0,94,29.80,2.0,South,9.2,19.6,N/A,,Overcast,180,2012-12-05 08:33:00
3:53 AM,51.1,50.0,96,29.80,2.0,South,9.2,18.4,N/A,,Overcast,180,2012-12-05 08:53:00
4:33 AM,51.8,51.8,100,29.76,3.0,South,10.4,19.6,N/A,,Overcast,190,2012-12-05 09:33:00
4:53 AM,52.0,51.1,97,29.76,4.0,South,10.4,20.7,0.00,Rain,Light Rain,190,2012-12-05 09:53:00
5:20 AM,51.8,51.8,100,29.75,2.5,South,9.2,20.7,0.02,Rain,Rain,190,2012-12-05 10:20:00
5:43 AM,50.0,46.4,87,29.79,5.0,NW,15.0,27.6,0.13,Rain,Rain,310,2012-12-05 10:43:00
5:53 AM,48.9,46.0,90,29.80,9.0,WNW,8.1,21.9,0.14,Rain,Light Rain,300,2012-12-05 10:53:00
6:53 AM,48.0,46.0,93,29.81,5.0,Calm,Calm,-,0.08,Rain,Rain,0,2012-12-05 11:53:00
7:53 AM,46.9,45.0,93,29.80,10.0,NNW,3.5,-,0.02,,Overcast,330,2012-12-05 12:53:00
9:53 AM,50.0,43.0,77,29.83,10.0,WNW,5.8,-,N/A,,Clear,290,2012-12-05 14:53:00
10:53 AM,48.9,39.9,71,29.83,10.0,NW,11.5,21.9,N/A,,Mostly Cloudy,320,2012-12-05 15:53:00
11:53 AM,50.0,35.1,57,29.82,10.0,West,11.5,19.6,N/A,,Clear,270,2012-12-05 16:53:00
12:53 PM,51.1,33.1,50,29.82,10.0,WNW,11.5,18.4,N/A,,Mostly Cloudy,290,2012-12-05 17:53:00
1:53 PM,44.1,30.9,60,29.85,10.0,NW,12.7,27.6,N/A,,Mostly Cloudy,310,2012-12-05 18:53:00
2:53 PM,42.1,28.0,58,29.88,10.0,WNW,15.0,21.9,N/A,,Mostly Cloudy,300,2012-12-05 19:53:00
3:53 PM,48.9,26.1,41,29.90,10.0,WNW,10.4,18.4,N/A,,Overcast,300,2012-12-05 20:53:00
4:53 PM,39.0,23.0,53,29.93,10.0,NNW,13.8,21.9,N/A,,Overcast,330,2012-12-05 21:53:00
5:53 PM,45.0,19.9,37,29.96,10.0,WNW,12.7,23.0,N/A,,Overcast,300,2012-12-05 22:53:00
6:53 PM,46.0,21.9,39,29.97,10.0,WNW,13.8,19.6,N/A,,Overcast,300,2012-12-05 23:53:00
7:53 PM,39.0,19.0,45,29.99,10.0,WNW,12.7,25.3,N/A,,Overcast,300,2012-12-06 00:53:00
8:53 PM,35.1,18.0,50,30.01,10.0,NW,11.5,21.9,N/A,,Overcast,320,2012-12-06 01:53:00
9:53 PM,35.1,16.0,46,30.03,10.0,NW,16.1,23.0,N/A,,Overcast,310,2012-12-06 02:53:00
10:53 PM,34.0,17.1,50,30.04,10.0,NW,13.8,23.0,N/A,,Overcast,320,2012-12-06 03:53:00
11:53 PM,33.1,17.1,52,30.06,10.0,NW,12.7,26.5,N/A,,Overcast,320,2012-12-06 04:53:00